Flag for U.S.A. Weather past 2 weeks in Amarillo, Texas, U.S.A.

Now
79 °F

Sunny.


Feels Like: 81 °F
Forecast: 67 / 82 °F
Wind: 12 mph from East

Location: Amarillo International Airport

Current Time: Jul 31, 2015 at 9:20:11 PM

Latest Report: Jul 31, 2015 at 8:53 PM


Visibility: 10 mi

Pressure: 30.04 "Hg (26.44 "Hg at 1117m altitude)

Humidity: 60%

Dew point: 64 °F

Location of AmarilloLocation

Historic Weather in Amarillo — Graph

°F

Amarillo temperature yesterday

Maximum temperature yesterday: 83 °F (at 12:53 PM)
Minimum temperature yesterday: 68 °F (at 7:53 AM)
Average temperature yesterday: 76 °F

Past Weeks' High & Low Weather Summary

 TemperatureHumidityPressure
High95 °F (Jul 27, 3:53 PM)97% (Jul 31, 6:53 AM)30.32 "Hg (Jul 31, 6:53 AM)
Low65 °F (Jul 21, 4:53 AM)33% (Jul 25, 6:53 PM)29.71 "Hg (Jul 17, 7:53 PM)
Average79 °F62%29.89 "Hg
* Reported Jul 16 7:53 PM — Jul 31 7:53 PM, Amarillo, Weather by CustomWeather, © 2015

Note: Actual official high and low records may vary slightly from our data, if they occured in-between our weather recording intervals... More about our weather records

Advertising

Amarillo weather history for previous 24 hours

 ConditionsComfort  
Time TempWeatherWind HumidityBarometerVisibility
7:53 PM
Fri, Jul 31
81 °FSunny.10 mph56%30.02 "Hg10 mi
6:53 PM83 °FSunny.8 mph51%30.01 "Hg10 mi
5:53 PM83 °FSunny.10 mph51%30.03 "Hg10 mi
4:53 PM84 °FSunny.6 mph51%30.03 "Hg10 mi
3:53 PM84 °FSunny.8 mph51%30.06 "Hg10 mi
2:53 PM81 °FSunny.8 mph53%30.09 "Hg10 mi
1:53 PM77 °FSunny.10 mph69%30.11 "Hg10 mi
12:53 PM73 °FScattered clouds.9 mph76%30.15 "Hg10 mi
11:53 AM71 °FPassing clouds.12 mph84%30.17 "Hg10 mi
10:53 AM67 °FLight rain. Overcast.13 mph90%30.17 "Hg10 mi
9:53 AM66 °FThunderstorms. Fog.12 mph93%30.18 "Hg4 mi
9:04 AM67 °FHeavy rain. Fog.14 mph93%30.32 "Hg2 mi
8:53 AM67 °FLight rain. Fog.14 mph93%30.17 "Hg6 mi
7:53 AM70 °FFog.6 mph97%30.13 "Hg1 mi
6:53 AM70 °FFog.10 mph97%30.09 "Hg1 mi
6:00 AM69 °FFog.10 mph96%30.25 "Hg1 mi
5:02 AM69 °FPassing clouds.8 mph93%30.25 "Hg8 mi
4:53 AM69 °FPassing clouds.7 mph93%30.10 "Hg8 mi
3:53 AM69 °FClear.12 mph90%30.09 "Hg10 mi
2:53 AM71 °FClear.8 mph87%30.09 "Hg10 mi
1:53 AM73 °FClear.8 mph81%30.11 "Hg10 mi
12:53 AM72 °FClear.5 mph84%30.11 "Hg10 mi
11:53 PM
Thu, Jul 30
73 °FClear.3 mph79%30.12 "Hg10 mi
10:53 PM74 °FClear.6 mph79%30.11 "Hg10 mi
9:53 PM76 °FClear.7 mph74%30.09 "Hg10 mi
Weather by CustomWeather, © 2015

See weather overviewHow to use our weather pages